Погода в Кананаскисе

Канада     50°55′56″N   115°07′58″W
темп.,
°C
ветер,
м/с
пор.,
м/с
влажн.,
%
обл.,
%
осадки,
мм/ч
давл.,
гПа
погр.,
м
7 декабря, вт
вт723:00−18зюз3393100 0.0 102257
02:00−16зюз4489100 0.0 1019109
05:00−15зюз4489100 0.0 1017105
08:00−15зюз448674 0.0 101793
11:00−11зюз4473100 0.0 1014181
14:00−8зюз4471100 0.0 1010293
17:00−11зюз4488100 0.0 1013107
20:00−10зюз458699 0.0 1009157
8 декабря, ср
ср823:00−12юз459199 0.0 1007103
02:00−11юз5789100 0.0 1002159
05:00−12юз569010 0.0 999125
08:00−12юз459111 0.0 99887
11:00−7зюз488332 0.0 991300
14:00−4зюз247442 0.0 991471
17:00−11ююз2296100 0.4 99916
20:00−14юз229328 0.6 100413
9 декабря, чт
чт923:00−16юз33824 0.6 100837
02:00−17юз43787 0.0 101042
05:00−14юз3476100 0.0 100890
08:00−16юз3484100 0.0 101061
11:00−12зюз3475100 0.0 1008218
14:00−11зюз336699 0.0 1007551
17:00−15юз339172 0.0 101146
20:00−18юз339412 0.0 101542
10 декабря, пт
пт1023:00−18юз339313 0.0 101645
02:00−17юз3493100 0.0 101654
05:00−18юз349412 0.0 101753
08:00−18юз449420 0.0 101762
11:00−13зюз448011 0.0 1013275
14:00−11зюз457112 0.0 1011570
17:00−15юз449074 0.0 101585
20:00−16зюз5591100 0.0 1015116
11 декабря, сб
сб1123:00−15юз5688100 0.0 1012150
02:00−15юз5689100 0.0 1009168
05:00−14юз6788100 0.0 1006197
08:00−14юз679090 0.0 1003177
11:00−9юз458312 0.0 1000219
14:00−6ююз368072 0.1 994484
17:00−8ююз349396 0.2 991138
20:00−9юз2396100 0.7 99288